When you browse on this site, cookies collect data to enhance your experience and personalize the content and advertising you see.
Visit our Privacy Policy to learn more. By continuing to use the site, you agree to this use of cookies and data.
  • en Suisse
  • Liste des pays
  • À 7 jours
  • Température de l'eau
  • Carte satellitaire
  • Carte météo
  • Widgets météo
  • user-avatar
    Se connecter

    Météo par heure à Berat

    Ce jour, 25 Avril, Jeudi

    Heure Température Précipitation Vent Pression Humidité
    00:00 +16°C° 0 mm 2 m/s 749 mmHg 69%
    01:00 +16°C° 0 mm 1 m/s 748 mmHg 70%
    02:00 +16°C° 0 mm 2 m/s 748 mmHg 70%
    03:00 +16°C° 0 mm 2 m/s 748 mmHg 70%
    04:00 +16°C° 0 mm 2 m/s 748 mmHg 69%
    05:00 +17°C° 0 mm 2 m/s 749 mmHg 66%
    06:00 +19°C° 0 mm 2 m/s 749 mmHg 63%
    07:00 +22°C° 0 mm 1 m/s 749 mmHg 59%
    08:00 +23°C° 0 mm 1 m/s 749 mmHg 53%
    09:00 +25°C° 0 mm 1 m/s 749 mmHg 47%
    10:00 +26°C° 0 mm 1 m/s 749 mmHg 41%
    11:00 +27°C° 0 mm 1 m/s 749 mmHg 42%
    12:00 +27°C° 0 mm 2 m/s 749 mmHg 43%
    13:00 +27°C° 0 mm 2 m/s 749 mmHg 44%
    14:00 +26°C° 0 mm 2 m/s 748 mmHg 49%
    15:00 +26°C° 0 mm 2 m/s 748 mmHg 54%
    16:00 +25°C° 0 mm 2 m/s 748 mmHg 59%
    17:00 +23°C° 0 mm 2 m/s 748 mmHg 67%
    18:00 +21°C° 0 mm 1 m/s 748 mmHg 75%
    19:00 +19°C° 0 mm 1 m/s 748 mmHg 83%
    20:00 +19°C° 0 mm 1 m/s 748 mmHg 83%
    21:00 +19°C° 0 mm 1 m/s 748 mmHg 82%
    22:00 +18°C° 0 mm 1 m/s 748 mmHg 82%
    23:00 +18°C° 0 mm 1 m/s 748 mmHg 81%

    Demain, 26 Avril, Vendredi

    Heure Température Précipitation Vent Pression Humidité
    00:00 +18°C° 0 mm 1 m/s 748 mmHg 81%
    01:00 +18°C° 0 mm 1 m/s 748 mmHg 80%
    02:00 +18°C° 0 mm 1 m/s 748 mmHg 79%
    03:00 +18°C° 0 mm 1 m/s 748 mmHg 78%
    04:00 +17°C° 0 mm 2 m/s 747 mmHg 77%
    05:00 +19°C° 0 mm 1 m/s 747 mmHg 72%
    06:00 +21°C° 0 mm 1 m/s 747 mmHg 67%
    07:00 +22°C° 0 mm 1 m/s 747 mmHg 62%
    08:00 +24°C° 0 mm 1 m/s 747 mmHg 56%
    09:00 +26°C° 0 mm 1 m/s 747 mmHg 50%
    10:00 +27°C° 0 mm 1 m/s 747 mmHg 44%
    11:00 +28°C° 0 mm 2 m/s 747 mmHg 44%
    12:00 +28°C° 0 mm 2 m/s 747 mmHg 44%
    13:00 +29°C° 0 mm 3 m/s 746 mmHg 44%
    14:00 +28°C° 0 mm 3 m/s 746 mmHg 48%
    15:00 +27°C° 0 mm 3 m/s 746 mmHg 51%
    16:00 +27°C° 0 mm 3 m/s 745 mmHg 55%
    17:00 +24°C° 0 mm 2 m/s 745 mmHg 62%
    18:00 +22°C° 0 mm 1 m/s 745 mmHg 70%
    19:00 +18°C° 0 mm 0 m/s 745 mmHg 77%
    20:00 +20°C° 0 mm 1 m/s 745 mmHg 78%
    21:00 +20°C° 0 mm 1 m/s 745 mmHg 79%
    22:00 +20°C° 0 mm 1 m/s 746 mmHg 79%
    23:00 +19°C° 0 mm 1 m/s 745 mmHg 79%

    Après-demain, 27 Avril, Samedi

    Heure Température Précipitation Vent Pression Humidité
    00:00 +19°C° 0 mm 1 m/s 745 mmHg 79%
    01:00 +19°C° 0 mm 1 m/s 745 mmHg 79%
    02:00 +18°C° 0 mm 1 m/s 744 mmHg 78%
    03:00 +18°C° 0 mm 1 m/s 744 mmHg 78%
    04:00 +16°C° 0 mm 0 m/s 744 mmHg 77%
    05:00 +18°C° 0 mm 1 m/s 744 mmHg 74%
    06:00 +19°C° 0 mm 1 m/s 744 mmHg 71%
    07:00 +20°C° 0 mm 1 m/s 744 mmHg 68%
    08:00 +20°C° 0.1 mm 1 m/s 744 mmHg 69%
    09:00 +19°C° 0.1 mm 2 m/s 744 mmHg 70%
    10:00 +19°C° 0.1 mm 2 m/s 744 mmHg 71%
    11:00 +20°C° 0.2 mm 2 m/s 744 mmHg 66%
    12:00 +22°C° 0.2 mm 3 m/s 744 mmHg 62%
    13:00 +24°C° 0.2 mm 3 m/s 744 mmHg 57%
    14:00 +22°C° 0.3 mm 3 m/s 743 mmHg 56%
    15:00 +21°C° 0.3 mm 4 m/s 743 mmHg 55%
    16:00 +20°C° 0.3 mm 4 m/s 743 mmHg 55%
    17:00 +18°C° 0 mm 3 m/s 743 mmHg 62%
    18:00 +17°C° 0 mm 2 m/s 743 mmHg 69%
    19:00 +15°C° 0 mm 1 m/s 743 mmHg 76%
    20:00 +14°C° 0 mm 1 m/s 744 mmHg 80%
    21:00 +14°C° 0 mm 1 m/s 744 mmHg 84%
    22:00 +12°C° 0 mm 0 m/s 744 mmHg 88%
    23:00 +12°C° 0 mm 0 m/s 744 mmHg 87%

    28 Avril, Dimanche

    Heure Température Précipitation Vent Pression Humidité
    00:00 +13°C° 0 mm 1 m/s 744 mmHg 87%
    01:00 +12°C° 0 mm 1 m/s 744 mmHg 86%
    02:00 +12°C° 0 mm 1 m/s 744 mmHg 83%
    03:00 +12°C° 0 mm 1 m/s 744 mmHg 79%
    04:00 +12°C° 0 mm 1 m/s 744 mmHg 76%
    05:00 +13°C° 0 mm 1 m/s 744 mmHg 70%
    06:00 +14°C° 0 mm 1 m/s 744 mmHg 65%
    07:00 +16°C° 0 mm 1 m/s 744 mmHg 60%
    08:00 +18°C° 0 mm 1 m/s 744 mmHg 55%
    09:00 +18°C° 0 mm 2 m/s 744 mmHg 50%
    10:00 +20°C° 0 mm 3 m/s 744 mmHg 46%
    11:00 +20°C° 0 mm 3 m/s 743 mmHg 45%
    12:00 +21°C° 0 mm 3 m/s 743 mmHg 43%
    13:00 +22°C° 0 mm 3 m/s 743 mmHg 42%
    14:00 +21°C° 0 mm 3 m/s 742 mmHg 46%
    15:00 +21°C° 0 mm 3 m/s 742 mmHg 49%
    16:00 +20°C° 0 mm 3 m/s 742 mmHg 53%
    17:00 +18°C° 0 mm 2 m/s 742 mmHg 60%
    18:00 +17°C° 0 mm 2 m/s 742 mmHg 67%
    19:00 +15°C° 0 mm 1 m/s 742 mmHg 75%
    20:00 +14°C° 0 mm 1 m/s 742 mmHg 76%
    21:00 +14°C° 0 mm 1 m/s 743 mmHg 77%
    22:00 +14°C° 0 mm 1 m/s 743 mmHg 78%
    23:00 +13°C° 0 mm 1 m/s 743 mmHg 79%

    29 Avril, Lundi

    Heure Température Précipitation Vent Pression Humidité
    00:00 +13°C° 0 mm 1 m/s 743 mmHg 81%
    01:00 +12°C° 0 mm 1 m/s 743 mmHg 82%
    02:00 +12°C° 0 mm 1 m/s 742 mmHg 83%
    03:00 +12°C° 0 mm 2 m/s 742 mmHg 84%
    04:00 +12°C° 0 mm 2 m/s 742 mmHg 84%
    05:00 +13°C° 0 mm 2 m/s 742 mmHg 79%
    06:00 +14°C° 0 mm 2 m/s 742 mmHg 73%
    07:00 +16°C° 0 mm 2 m/s 742 mmHg 68%
    08:00 +17°C° 0 mm 2 m/s 742 mmHg 61%
    09:00 +19°C° 0 mm 2 m/s 742 mmHg 54%
    10:00 +20°C° 0 mm 3 m/s 742 mmHg 47%
    11:00 +20°C° 0 mm 3 m/s 742 mmHg 47%
    12:00 +21°C° 0 mm 4 m/s 742 mmHg 47%
    13:00 +21°C° 0 mm 4 m/s 742 mmHg 46%
    14:00 +21°C° 0 mm 4 m/s 741 mmHg 49%
    15:00 +20°C° 0 mm 4 m/s 741 mmHg 51%
    16:00 +20°C° 0 mm 3 m/s 741 mmHg 53%
    17:00 +18°C° 0 mm 3 m/s 741 mmHg 62%
    18:00 +16°C° 0 mm 2 m/s 741 mmHg 70%
    19:00 +15°C° 0 mm 1 m/s 741 mmHg 79%
    20:00 +14°C° 0 mm 1 m/s 741 mmHg 82%
    21:00 +14°C° 0 mm 1 m/s 741 mmHg 85%
    22:00 +13°C° 0 mm 1 m/s 742 mmHg 88%
    23:00 +13°C° 0 mm 1 m/s 742 mmHg 88%

    30 Avril, Mardi

    Heure Température Précipitation Vent Pression Humidité
    00:00 +12°C° 0 mm 1 m/s 741 mmHg 88%
    01:00 +12°C° 0 mm 2 m/s 741 mmHg 88%
    02:00 +12°C° 0 mm 2 m/s 741 mmHg 88%
    03:00 +12°C° 0 mm 2 m/s 741 mmHg 89%
    04:00 +10°C° 0 mm 2 m/s 741 mmHg 89%
    05:00 +12°C° 0.2 mm 2 m/s 741 mmHg 86%
    06:00 +13°C° 0.2 mm 2 m/s 741 mmHg 82%
    07:00 +14°C° 0.2 mm 2 m/s 741 mmHg 78%
    08:00 +15°C° 0.4 mm 2 m/s 741 mmHg 74%
    09:00 +16°C° 0.4 mm 3 m/s 741 mmHg 69%
    10:00 +17°C° 0.4 mm 4 m/s 742 mmHg 65%
    11:00 +17°C° 0.5 mm 4 m/s 741 mmHg 64%
    12:00 +17°C° 0.5 mm 4 m/s 741 mmHg 64%
    13:00 +17°C° 0.5 mm 4 m/s 741 mmHg 63%
    14:00 +17°C° 0.1 mm 4 m/s 741 mmHg 64%
    15:00 +17°C° 0.1 mm 4 m/s 741 mmHg 65%
    16:00 +15°C° 0.1 mm 4 m/s 741 mmHg 66%
    17:00 +14°C° 0 mm 3 m/s 741 mmHg 73%
    18:00 +14°C° 0 mm 2 m/s 742 mmHg 80%
    19:00 +12°C° 0 mm 1 m/s 742 mmHg 86%
    20:00 +12°C° 0 mm 1 m/s 742 mmHg 87%
    21:00 +11°C° 0 mm 1 m/s 742 mmHg 88%
    22:00 +11°C° 0 mm 1 m/s 743 mmHg 88%
    23:00 +11°C° 0 mm 1 m/s 743 mmHg 85%
    Voir plus